754  
ASUS43 KDTX 221310  
RWRMI  
MICHIGAN HOURLY REGIONAL WEATHER ROUNDUP  
NATIONAL WEATHER SERVICE DETROIT/PONTIAC MI  
900 AM EDT SUN OCT 22 2017  
 
NOTE: "FAIR" INDICATES FEW OR NO CLOUDS BELOW 12,000 FEET WITH NO  
SIGNIFICANT WEATHER AND/OR TO VISIBILITY
.  
 
MIZ047>049-052>055-059>063-066>070-074>076-081>083-221400-  
SOUTHEAST LOWER MICHIGAN  
 
CITY SKY/WX TMP DP RH WIND PRES REMARKS
 
ADRIAN SUNNY 54 47 77 S7 30.17R  
ALMA CLOUDY 58 46 64 S6 30.08S  
ANN ARBOR SUNNY 48 47 96 CALM 30.17R  
BAD AXE CLOUDY 57 49 74 S12 30.14R  
CARO CLOUDY 58 46 63 S6 30.12R  
DETROIT CITY MOSUNNY 59 54 83 S8 30.17R  
DETROIT MOSUNNY 59 54 83 SE6 30.18R  
FLINT CLEAR 58 48 69 S9 30.14R  
GROSSE ILE SUNNY 60 56 85 S8 30.17R  
HILLSDALE CLEAR 54 45 71 SE8 30.13S  
HOWELL CLEAR 58 48 71 S9 30.15R  
 
CITY SKY/WX TMP DP RH WIND PRES REMARKS
 
JACKSON CLEAR 57 47 69 SE10 30.13R  
LAMBERTVILLE SUNNY 59 49 70 S5 30.17R  
LANSING CLEAR 58 46 64 S12G20 30.11R  
LAPEER FAIR 59 48 67 S7 30.15R  
MASON CLEAR 58 48 68 S10 30.12S  
MONROE SUNNY 58 51 76 S6 30.16R  
MT. CLEMENS PTSUNNY 58 58 100 S8 30.16R  
PONTIAC MOSUNNY 57 51 80 S8 30.16R  
PORT HOPE N/A 59 48 67 SE6 30.11R  
PORT HURON SUNNY 57 55 94 S6 30.18R  
TRI CITIES CLEAR 60 49 66 S13 30.10R  
MIDLAND FAIR 60 48 64 SE5 30.08R  
TROY SUNNY 54 52 91 S3 30.18R  
SAGINAW HB CLEAR 59 46 63 S8 30.10R  

 
MIZ043>046-050>051-056>058-064>065-071>073-077>080-221400-  
SOUTHWEST LOWER MICHIGAN  
 
CITY SKY/WX TMP DP RH WIND PRES REMARKS
 
BATTLE CREEK CLEAR 61 49 64 S14 30.09R  
BENTON HARBOR PTCLDY 63 50 62 S12 30.02R  
BIG RAPIDS CLEAR 58 48 67 S8G17 30.03R  
COLDWATER CLEAR 58 47 65 SE9 30.11S  
FREMONT FAIR 62 51 66 S9 30.00R  
HOLLAND CLEAR 62 51 67 S13 30.01S  
GRAND RAPIDS CLOUDY 63 50 62 SE12 30.04S  
IONIA FAIR 61 47 61 SE12G17 30.06F  
KALAMAZOO CLEAR 62 48 60 SE9 30.07S  
LUDINGTON MOCLDY 63 53 71 SE6 29.95S  
MARSHALL CLEAR 59 47 65 SE8 30.10S  
MOUNT PLEASANT CLOUDY 62 47 59 SE7 30.05F  
MUSKEGON MOCLDY 64 52 64 SE12 29.99R  
SOUTH HAVEN MOCLDY 65 51 58 S14 30.01R  

 
MIZ016>042-221400-  
NORTHERN LOWER MICHIGAN  
 
CITY SKY/WX TMP DP RH WIND PRES REMARKS
 
ALPENA CLEAR 59 50 72 S12 30.07R  
BEAVER ISLAND PTCLDY 64 53 68 S12G21 29.94R  
BELLAIRE MOCLDY 64 50 61 S5 29.98S  
CADILLAC PTCLDY 64 50 61 S12 30.02R  
CHARLEVOIX CLEAR 64 52 64 S10 29.98S  
FRANKFORT MOCLDY 66 54 65 SE12G17 29.94S  
GAYLORD CLEAR 58 47 66 S13 30.02S  
GRAYLING PTCLDY 58 46 64 S5 30.04S  
HARBOR SPRINGS PTCLDY 63 50 62 CALM 29.97S  
HOUGHTON LAKE CLEAR 58 46 64 SE10 30.06R  
MANISTEE PTCLDY 62 53 72 SE6 29.95S  
OSCODA CLEAR 60 50 68 S7 30.09R  
PELLSTON CLEAR 61 52 72 SE8 29.97S  
ROGERS CITY CLEAR 60 49 68 S10G16 30.04S  
TRAVERSE CITY PTCLDY 64 51 62 CALM 29.95F  

 
MIZ007>008-015-221400-  
EASTERN UPPER MICHIGAN  
 
CITY SKY/WX TMP DP RH WIND PRES REMARKS
 
KINROSS CLOUDY 58 52 80 SE14 29.97R  
MACKINAC ISLAN PTCLDY 62 49 63 S10G20 29.97R  
NEWBERRY PTCLDY 60 56 86 S16 29.92R  
S. S. MARIE CLOUDY 61 52 72 SE9 29.97R  
MUNISING N/A 63 57 81 S14G22 29.83R  

 
MIZ004>006-011>014-085-221400-  
CENTRAL UPPER MICHIGAN  
 
CITY SKY/WX TMP DP RH WIND PRES REMARKS
 
MANISTIQUE CLOUDY 60 55 81 S6 29.90R  
ESCANABA CLOUDY 60 56 86 S14 29.86R  
MENOMINEE CLOUDY 63 56 78 S9 29.86S  
SAWYER-GWINN MOCLDY 57 55 94 S10 29.83R  

 
MIZ001>003-009>011-084-221400-  
WESTERN UPPER MICHIGAN  
 
CITY SKY/WX TMP DP RH WIND PRES REMARKS
 
IRON MOUNTAIN CLOUDY 62 56 80 S5 29.82R  
HOUGHTON CLOUDY 53 49 86 W23G35 29.80R  
COPPER HARBOR N/A 56 52 86 N10 29.78R  
IRONWOOD CLOUDY 49 45 86 SW8 29.87R  

 
 
ABBREVIATIONS USED IN REMARKS  
TC - TEMPERATURE IN CELSIUS  
WCI - WIND CHILL INDEX  
HX - HEAT INDEX  
VSB - VISIBILITY  
 
 
 
CLICK HERE TO GO TO PREVIOUS BULLETINS.

The Nexlab MI Page Main Text Page